Regional Weather Roundup
Issued by NWS Wakefield, VA

Home | Current Version | Previous Version | Graphics & Text | Print | Product List | Glossary On
Versions: 1 2 3 4 5 6 7 8 9 10 11 12 13 14 15 16 17 18 19 20 21 22 23 24 25 26 27 28 29 30 31 32 33 34 35 36 37 38 39 40 41 42 43 44 45 46 47 48 49 50
522
ASUS41 KAKQ 191016
RWRAKQ

REGIONAL WEATHER ROUNDUP
NATIONAL WEATHER SERVICE WAKEFIELD VA
600 AM EDT THU OCT 19 2017

Note: "fair" indicates few or no clouds below 12,000 feet with no
significant weather and/or obstructions to visibility. * = Denotes
station may not report precipitation (e.g., rain,snow,etc.),
thunder or fog.

VAZ042-051-052>054-056-191100-
NORTHERN VIRGINIA

CITY           SKY/WX    TMP DP  RH WIND       PRES   REMARKS
WASH NATIONAL  CLOUDY    49  47  93 SW6       30.28S
DULLES         CLOUDY    42  41  96 CALM      30.27S
FORT BELVOIR   PTCLDY    41  40  96 CALM      30.28S
QUANTICO       PTCLDY    47  46  97 W3        30.29S
FREDERICKSBRG* MOCLDY    44  44 100 CALM      30.28R
STAFFORD*      PTCLDY    37  37 100 CALM      30.32S FOG
WARRENTON      PTCLDY    34  32  91 CALM      30.26F
CULPEPER*      CLEAR     37  36  94 CALM      30.28S
MANASSAS*      PTCLDY    38  37  97 CALM      30.28S
LEESBURG*      CLEAR     41  41 100 CALM      30.28S
WINCHESTER     CLEAR     41  37  87 CALM      30.26R
FRONT ROYAL*   SUNNY     43  41  93 MISG      30.25S
LURAY*         SUNNY     37  37 100 CALM      30.27S
$$

VAZ048-049-060>072-079>083-191100-
CENTRAL AND SOUTH CENTRAL VIRGINIA

CITY           SKY/WX    TMP DP  RH WIND       PRES   REMARKS
RICHMOND       MOCLDY    46  44  93 E3        30.28F
CHESTERFIELD*  NOT AVBL
PETERSBURG*    MOCLDY   N/A N/A N/A CALM      30.30S
HANOVER        CLOUDY    43  42  97 CALM      30.30S
TAPPAHANNOCK*  CLOUDY   N/A N/A N/A CALM      30.30S
QUINTON*       FAIR      43  43 100 E3        30.29S
CHARLOTTSVILLE CLEAR     44  41  89 SW3       30.27R
GORDONSVILLE*  SUNNY     38  38 100 SW3       30.27S
ORANGE*        CLEAR     36  36 100 CALM      30.27S
LOUISA*        CLEAR     39  37  93 CALM      30.27S
BUMPASS*       FAIR      41  41 100 CALM      30.28S
FARMVILLE*     CLEAR     36  36 100 CALM      30.29R
CREWE*         FAIR      36  36 100 CALM      30.28S
FORT PICKETT*  FAIR      41  41 100 CALM      30.29F
CHASE CITY*    FAIR      39  39 100 CALM      30.30R
CLARKSVILLE*   PTSUNNY   37  37 100 CALM      30.30R
SOUTH HILL*    CLOUDY    40  39  99 CALM      30.35S
LAWRENCEVILLE* FAIR      40  40  97 CALM      30.30R
EMPORIA*       CLOUDY    41  39  93 CALM      30.31S
$$

VAZ088>098-191100-
SOUTHEAST VIRGINIA

CITY           SKY/WX    TMP DP  RH WIND       PRES   REMARKS
NORFOLK        CLEAR     52  51  97 CALM      30.29R
VIRGINIA BEACH PTCLDY    49  46  90 CALM      30.28S
NORFOLK NAVAL  PTCLDY    51  49  92 CALM      30.30S
WEST POINT*      N/A     40  40 100 CALM      30.31S VSB 1/4
SALUDA*        FAIR      47  47 100 CALM      30.29S
NEWPORT NEWS   CLEAR     45  44  97 CALM      30.29S
LANGLEY AFB    CLEAR     49  48  99 CALM      30.29R
FORT EUSTIS    CLEAR     48  45  89 CALM      30.27R
WILLIAMSBURG*  CLEAR     48  48 100 CALM      30.30S
HR EXEC AP*    NOT AVBL
FRANKLIN*      CLEAR     40  39  96 CALM      30.30S
US460-WAKEFLD  CLEAR     41  41 100 CALM      30.30R
$$

VAZ020-022-025-037-045-191100-
WEST CENTRAL AND SOUTHWEST VIRGINIA

CITY           SKY/WX    TMP DP  RH WIND       PRES   REMARKS
STAUNTON*      CLEAR     34  32  91 CALM      30.30R
WAYNESBORO*    SUNNY     37  37  98 CALM      30.29R
HOT SPRINGS VA CLEAR     45  27  48 CALM      30.31S
LYNCHBURG      CLEAR     39  38  96 CALM      30.29S
DANVILLE       CLEAR     36  32  85 CALM      30.30S
SOUTH BOSTON*  FAIR      35  34  95 CALM      30.31R
MARTINSVILLE   CLEAR     33  33  99 CALM      30.33S
ROANOKE        CLEAR     42  39  89 CALM      30.32S
BLACKSBURG     CLEAR     38  38 100 CALM      30.34R
DUBLIN*        CLEAR     39  38  98 CALM      30.33R
MARION*        CLEAR     38  35  90 CALM      30.34S
HILLSVILLE*    CLEAR     40  36  83 CALM      30.30R
RICHLANDS*     FAIR      46  38  74 SE3       30.30S
WISE*          CLEAR     46  41  81 SW6       30.30R
ABINGDON*      CLEAR     46  41  82 E3        30.30S
$$

MDZ021>025-VAZ099-100-191100-
SOUTHERN MARYLAND AND THE DELMARVA PENINSULA

CITY           SKY/WX    TMP DP  RH WIND       PRES   REMARKS
PATUXENT RIVER PTCLDY    50  48  93 SW5       30.28S
BAY BRIDGE APT CLEAR     55  50  82 S6        30.28S
LEONARDTOWN    NOT AVBL
DOVER          CLEAR     49  49 100 S5        30.27S
GEORGETOWN     PTCLDY    45  42  89 CALM      30.30S
EASTON         CLEAR     48  46  93 CALM      30.32R
CAMBRIDGE      CLEAR     45  43  93 CALM      30.29S
SALISBURY      CLEAR     42  41  96 CALM      30.29S
OCEAN CITY     CLEAR     43  42  97 CALM      30.30S
WALLOPS ISLAND CLEAR     45  44  97 CALM      30.30S
ACCOMACK*      PTCLDY    46  44  94 CALM      30.29S
$$

NCZ012>017-030>032-191100-
NORTH CENTRAL AND EASTERN NORTH CAROLINA

CITY           SKY/WX    TMP DP  RH WIND       PRES   REMARKS
ROANOKE RAPIDS FOG       43  43 100 CALM      30.29S VSB 1/4
RALEIGH        PTCLDY    42  42 100 CALM      30.30R
ELIZABETH CITY CLEAR     58  57  97 N3        30.28S
AHOSKIE*       CLOUDY    44  44 100 CALM      30.30S
EDENTON*       CLEAR     55  53  93 CALM      30.29R
CURRITUCK*     CLEAR     52  51  97 CALM      30.29S
KILL DEVIL HLS CLEAR     65  57  75 CALM      30.26S
MANTEO         CLEAR     61  57  86 E6        30.27S
CAPE HATTERAS  CLEAR     66  63  90 NE7       30.24S
TARBORO*       NOT AVBL
GOLDSBORO      CLEAR     51  50  95 CALM      30.27R FOG
WASHINGTON     CLEAR     52  51  97 CALM      30.28S
GREENVILLE     CLEAR     48  46  93 CALM      30.29R
NEW BERN       CLOUDY    59  58  96 NE5       30.27S
WILMINGTON     CLEAR     57  55  93 N7        30.24S
$$

VAZ048-191100-
ELSEWHERE

CITY           SKY/WX    TMP DP  RH WIND       PRES   REMARKS
HARRISBURG PA  PTCLDY    46  44  93 E6        30.25S
BALTIMORE      PTCLDY    42  42 100 CALM      30.27S
ANNAPOLIS      CLEAR     52  50  93 CALM      30.27S
ANDREWS AFB    CLOUDY    45  44  94 S3        30.27S
PHILADELPHIA   PTCLDY    52  48  86 S5        30.28S
HENDERSON NC   CLEAR     40  40  97 CALM      30.30R
GREENSBORO     CLEAR     43  39  86 CALM      30.29S
ROCKY MOUNT    CLEAR     48  48 100 CALM      30.29S
$$

VAZ100-191100-
MARINE

STATION/POSITION TIME  TEMP    WIND        PRES    WAVE   SWELL
                       AIR SEA DIR/SP/G            HT/PER HT/PER
                 (UTC) (F)     (DEG/KT/KT) (MB)    (FT/S) (FT/S)
BRANDYWINE LGT   0900   61     230/ 14/ 16 1025.7
CAPE MAY NJ      0900   60 64  230/  6/  8 1025.0
LEWES DE         0900   52 65  220/  5/  6 1025.3
15NM E FENWICK I 0950   64 67  210/  8/ 10 1026.0F   3/ 9   3/ 9
OCEAN-CITY-INLET 0900   54 64  280/  2/  3 1026.1
WACHAPREAGUE VA  0900   47 62   CALM  /  2 1025.6
THOMAS POINT MD  1000   57 67  220/ 12/ 14   N/A
COVE POINT MD    0900   57     240/ 10/ 12 1025.9
SOLOMONS ISLAND  0900   58 69  220/  7/  8 1025.0
BISHOPS HEAD MD  0900   62 62  210/  6/  7 1025.7
PINEY POINT MD   0900          230/ 10/ 11   N/A
CAMBRIDGE MD     0900   50 66              1026.2
LEWISETTA VA     0900   54 64  210/  4/  5 1025.5
RAPPAHANNOCK LGT 0900          160/  6/  7 1026.1
YORK RVR RNG VA  0900   62     250/  4/  5 1025.9
YORKTOWN VA      0900   55 70  180/  2/  2 1025.1
DOMINION TERM VA 0900   61      CALM  /  1 1025.7
KIPTOPEKE VA     0900      67   70/  4/  4   N/A
CAPE HENRY VA    0900   62      CALM  /  2   N/A
WILLOUBY STN VA  0900   62     170/  3/  3 1025.4
S CRANEY ISL VA  0900   55     280/  1/  1 1025.3
CAPE HENRY BUOY  1000      70                N/A     3/ 8
CAPE CHARLES BUO 0951      70                N/A     3/10
64NM E OF VA BCH 0950   67 67   80/ 10/ 10 1025.7R   3/ 8   3/ 8
DUCK PIER NC     0900   67 68   60/ 10/ 11 1024.8
44100 DUCK FRF   0905      70                N/A     4/ 9   2/11
44056 DUCK FRF   0930      69                N/A     3/10   2/11
OREGON INLET NC  0900   67 65   40/  9/ 12 1024.6
HATTERAS NC      0900   67 68   40/  7/ 12 1023.9
DIAMOND SHLS NC  0950   74 81   80/ 10/ 16 1023.1F   5/ 9   5/ 9
CAPE LOOKOUT NC  1000   64     360/ 11/ 14 1023.3R
$$




USA.gov is the U.S. government's official web portal to all federal, state and local government web resources and services.